Regional Weather Roundup
Issued by NWS

Home | Current Version | Previous Version | Text Only | Print | Product List | Glossary Off
Versions: 1 2 3 4 5 6 7 8 9 10 11 12 13 14 15 16 17 18 19 20 21 22 23 24 25 26 27 28 29 30 31 32 33 34 35 36 37 38 39 40 41 42 43 44 45 46 47 48 49 50

000
ASUS45 KBOI 301710
RWRID

IDAHO REGIONAL WEATHER ROUNDUP
NATIONAL WEATHER SERVICE BOISE ID
1100 AM MDT TUE JUN 30 2015

NOTE: "FAIR" INDICATES FEW OR NO CLOUDS BELOW 12000 FEET
WITH NO SIGNIFICANT WEATHER AND/OR OBSTRUCTIONS TO VISIBILITY

IDZ012-014-301800-
SOUTHWEST IDAHO


CITY           SKY/WX    TMP DP  RH WIND       PRES   REMARKS
BOISE          SUNNY     86  57  37 W6        30.02S
CALDWELL       SUNNY     90  55  31 NW12      30.01F
MOUNTAIN HOME  MOSUNNY   87  52  29 VRB3      30.02F
$$

IDZ016-017-301800-
SOUTHCENTRAL IDAHO


CITY           SKY/WX    TMP DP  RH WIND       PRES   REMARKS
BURLEY         SUNNY     82  57  42 CALM      30.10S
JEROME         MOSUNNY   82  55  39 S6        30.11S
TWIN FALLS     SUNNY     86  57  37 NW7       30.09F
$$

IDZ019>023-301800-
SOUTHEAST IDAHO


CITY           SKY/WX    TMP DP  RH WIND       PRES   REMARKS
IDAHO FALLS    PTSUNNY   77  59  53 N3        30.15F
POCATELLO      SUNNY     79  57  46 CALM      30.14S
REXBURG        MOSUNNY   78  52  40 S5        30.16S
$$

IDZ006-010-011-018-031-032-301800-
CENTRAL IDAHO MOUNTAINS


CITY           SKY/WX    TMP DP  RH WIND       PRES   REMARKS
MCCALL         SUNNY     82  52  35 VRB3      30.16F
HAILEY         MOSUNNY   79  55  44 CALM      30.20F
STANLEY          N/A     78  49  35 N3        30.27F
SALMON         SUNNY     75  61  60 CALM      30.11F
CHALLIS        SUNNY     79  54  41 CALM      30.18F
$$

IDZ002-004-006-007-026-301800-
NORTHERN IDAHO


CITY           SKY/WX    TMP DP  RH WIND       PRES   REMARKS
LEWISTON       SUNNY     88  56  33 S3        29.99F
LOWELL           N/A     83  63  50 CALM      29.98F
COEUR D`ALENE  SUNNY     79  59  50 CALM      30.04S
MULLAN PASS    SUNNY     68  53  58 NW8       30.24R
$$



USA.gov is the U.S. government's official web portal to all federal, state and local government web resources and services.